Weather History for Hyannis, MA

Change the Weather History Date:

Friday, November 8, 2013

  Actual Average Record
Temperature  
Mean Temperature 44 °F -  
Max Temperature 50 °F 52 °F 68 °F (1938)
Min Temperature 37 °F 36 °F 21 °F (1967)
Degree Days  
Heating Degree Days 22    
Moisture  
Dew Point 26 °F    
Average Humidity 52    
Maximum Humidity 71    
Minimum Humidity 41    
Precipitation  
Precipitation 0.00 in - - ()
Sea Level Pressure  
Sea Level Pressure 29.91 in    
Wind  
Wind Speed 11 mph (WNW)    
Max Wind Speed 15 mph    
Max Gust Speed 25 mph    
Visibility 10 miles    
Events      
Averages and records for this station are not official NWS values.
T = Trace of Precipitation, MM = Missing Value Source: NWS Daily Summary

Daily Weather History Graph

Daily Weather History Graph

Search for Another Location

Airport:

Trip Planner

Search our weather history database for the weather conditions in past years. The results will help you decide how hot, cold, wet, or windy it might be!

Date:

Astronomy

Nov. 08, 2013 Rise Set
Actual Time 6:21 AM EST 4:27 PM EST
Civil Twilight 5:52 AM EST 4:56 PM EST
Nautical Twilight 5:19 AM EST 5:29 PM EST
Astronomical Twilight 4:46 AM EST 6:02 PM EST
Moon 11:15 AM EST (11/8) 9:44 PM EST (11/8)
Length of Visible Light 11h 04m
Length of Day
10h 05m
Waxing Crescent, 33% of the Moon is Illuminated
Nov 8
Waxing Crescent
Nov 10
First Quarter
Nov 17
Full
Nov 25
Last Quarter
Dec 2
New

Hourly Weather History & Observations

Time (EST) Temp. Windchill Dew Point Humidity Pressure Visibility Wind Dir Wind Speed Gust Speed Precip Events Conditions
12:08 AM 46.4 °F 40.7 °F 37.4 °F 71% 29.78 in 10.0 mi NW 12.7 mph - N/A   Overcast
12:56 AM 45.0 °F 38.2 °F 32.0 °F 60% 29.79 in 10.0 mi NW 15.0 mph 21.9 mph N/A   Overcast
1:56 AM 43.0 °F 37.7 °F 33.1 °F 68% 29.81 in 10.0 mi WNW 9.2 mph - N/A   Overcast
2:56 AM 41.0 °F 36.4 °F 30.9 °F 67% 29.82 in 10.0 mi WNW 6.9 mph - N/A   Clear
3:56 AM 39.9 °F 33.9 °F 28.9 °F 65% 29.84 in 10.0 mi West 9.2 mph - N/A   Clear
4:56 AM 39.0 °F 32.3 °F 26.1 °F 60% 29.85 in 10.0 mi WNW 10.4 mph - N/A   Clear
5:56 AM 37.9 °F 30.9 °F 26.1 °F 62% 29.86 in 10.0 mi WNW 10.4 mph - N/A   Clear
6:56 AM 37.9 °F 31.5 °F 24.1 °F 57% 29.90 in 10.0 mi West 9.2 mph 18.4 mph N/A   Clear
7:56 AM 42.1 °F 36.6 °F 23.0 °F 47% 29.93 in 10.0 mi WNW 9.2 mph - N/A   Clear
8:56 AM 45.0 °F 39.3 °F 23.0 °F 42% 29.93 in 10.0 mi West 11.5 mph 17.3 mph N/A   Clear
9:56 AM 46.9 °F - 30.0 °F 52% 29.92 in 10.0 mi WNW 10.4 mph - N/A   Unknown
10:56 AM - - - N/A% 29.89 in - WNW 10.4 mph - N/A   Clear
11:56 AM 50.0 °F - 30.0 °F 46% 29.87 in 10.0 mi WNW 12.7 mph - N/A   Partly Cloudy
12:56 PM 50.0 °F - 28.0 °F 43% 29.86 in 10.0 mi WNW 12.7 mph 19.6 mph N/A   Partly Cloudy
1:56 PM 48.9 °F - 30.0 °F 48% 29.87 in 10.0 mi NNW 10.4 mph - 0.00 in   Mostly Cloudy
2:56 PM 50.0 °F - 27.0 °F 41% 29.88 in 10.0 mi West 13.8 mph 23.0 mph N/A   Overcast
3:56 PM 48.0 °F - 25.0 °F 41% 29.90 in 10.0 mi WNW 6.9 mph - N/A   Partly Cloudy
4:56 PM 46.0 °F 41.0 °F 24.1 °F 42% 29.92 in 10.0 mi West 10.4 mph 20.7 mph N/A   Partly Cloudy
5:56 PM 45.0 °F 39.7 °F 23.0 °F 42% 29.96 in 10.0 mi West 10.4 mph 18.4 mph N/A   Partly Cloudy
6:56 PM 44.1 °F 39.0 °F 21.9 °F 42% 29.99 in 10.0 mi West 9.2 mph 17.3 mph N/A   Mostly Cloudy
7:56 PM 42.1 °F 36.1 °F 23.0 °F 47% 30.01 in 10.0 mi WNW 10.4 mph 21.9 mph N/A   Clear
8:56 PM 41.0 °F 33.5 °F 21.9 °F 47% 30.04 in 10.0 mi NW 13.8 mph 25.3 mph N/A   Clear
9:56 PM 39.0 °F 33.4 °F 21.9 °F 50% 30.06 in 10.0 mi WNW 8.1 mph 17.3 mph N/A   Clear
10:56 PM 37.9 °F 33.5 °F 21.0 °F 51% 30.07 in 10.0 mi WNW 5.8 mph - N/A   Clear
11:56 PM 37.0 °F 31.0 °F 21.0 °F 52% 30.08 in 10.0 mi West 8.1 mph - N/A   Clear